• Join FlightAware (Why Join?)
  • Login
  • US Flag GB Flag 
06:37 EDT


 

Airport Tracker/Info


-or-


 

Live Flight TrackerFlight Track Log ✈ RPA3253 ✈ 01-Aug-2013 ✈ KCLT - KMSY

Flight Track Log - Related Links

Times and Time Zones

All times are in EDT time to prevent confusion due to time zone crossing. See the RPA3253 flight status page for this flight to view local times or setup timezone preferences in your user account.

Time Position Orientation Groundspeed Altitude Reporting Facility
EDT Latitude Longitude Course Direction KTS MPH feet Rate Location/Type
23:52 35.1958 -80.9686 251° West 170 196 1,900  Level Atlanta Center
23:53 35.1453 -81.0364 228° Southwest 241 277 3,300 1,740 Climbing Atlanta Center
23:54 35.2667 -81.1784 270° West  Level FlightAware Approximate
23:54 35.1033 -81.1092 235° Southwest 291 335 6,000  Level Atlanta Center
23:55 35.1976 -81.2463 199° South  Level FlightAware Approximate
23:55 35.1225 -81.2150 283° West 296 341 9,300  Level Atlanta Center
23:56 35.0970 -81.2799 192° South  Level FlightAware Approximate
23:56 35.0847 -81.3025 242° Southwest 276 318 11,300  Level Atlanta Center
23:57 35.0535 -81.3877 251° West  Level FlightAware Approximate
23:57 35.0497 -81.4153 249° West 307 353 12,600  Level Atlanta Center
23:58 35.0167 -81.5281 250° West 346 398 14,600 1,800 Climbing Atlanta Center
23:59 34.9814 -81.6456 250° West 361 415 16,300 1,800 Climbing Atlanta Center
00:00 34.9419 -81.7633 248° West 369 425 18,200 1,740 Climbing Atlanta Center
00:01 34.8875 -81.8711 238° Southwest 379 436 19,800 1,500 Climbing Atlanta Center
00:02 34.8289 -81.9764 236° Southwest 385 443 21,200 1,380 Climbing Atlanta Center
00:03 34.7700 -82.0867 237° Southwest 385 443 22,600 1,260 Climbing Atlanta Center
00:04 34.7133 -82.2017 239° Southwest 391 450 23,800 1,140 Climbing Atlanta Center
00:05 34.6564 -82.3064 237° Southwest 405 466 24,900 900 Climbing Atlanta Center
00:06 34.5933 -82.4264 237° Southwest 412 474 25,700 840 Climbing Atlanta Center
00:07 34.5303 -82.5486 238° Southwest 424 488 26,600 900 Climbing Atlanta Center
00:08 34.4586 -82.6733 235° Southwest 441 507 27,600 900 Climbing Atlanta Center
00:09 34.3933 -82.7953 237° Southwest 447 514 28,500 780 Climbing Atlanta Center
00:10 34.3256 -82.9219 237° Southwest 447 514 29,200 720 Climbing Atlanta Center
00:11 34.2619 -83.0511 239° Southwest 453 521 30,000 360 Climbing Atlanta Center
00:12 34.1858 -83.1875 236° Southwest 459 528 30,000  Level Atlanta Center
00:13 34.1178 -83.3161 237° Southwest 459 528 30,000  Level Atlanta Center
00:14 34.0494 -83.4394 236° Southwest 459 528 30,000  Level Atlanta Center
00:15 33.9792 -83.5653 236° Southwest 459 528 30,000 120 Level Atlanta Center
00:16 33.9128 -83.6933 238° Southwest 464 534 30,300 360 Climbing Atlanta Center
00:17 33.8400 -83.8211 236° Southwest 464 534 30,800 300 Climbing Atlanta Center
00:18 33.7692 -83.9514 237° Southwest 464 534 31,000 60 Climbing Atlanta Center
00:19 33.6983 -84.0789 236° Southwest 464 534 31,000  Level Atlanta Center
00:20 33.6333 -84.2086 239° Southwest 464 534 31,000  Level Atlanta Center
00:21 33.5644 -84.3231 234° Southwest 464 534 31,000  Level Atlanta Center
00:22 33.4950 -84.4522 237° Southwest 464 534 31,000  Level Atlanta Center
00:23 33.4153 -84.5939 236° Southwest 464 534 31,000  Level Atlanta Center
00:24 33.3436 -84.7228 236° Southwest 464 534 31,000  Level Atlanta Center
00:25 33.2697 -84.8564 237° Southwest 464 534 31,000  Level Atlanta Center
00:26 33.1978 -84.9847 236° Southwest 464 534 31,000  Level Atlanta Center
00:27 33.1258 -85.1103 236° Southwest 464 534 31,000  Level Atlanta Center
00:28 33.0517 -85.2308 234° Southwest 464 534 31,000  Level Atlanta Center
00:29 32.9814 -85.3611 237° Southwest 459 528 31,000  Level Atlanta Center
00:31 32.9072 -85.4841 234° Southwest  Level FlightAware Approximate
00:36 32.4786 -86.2292 235° Southwest 576 663 31,000  Level Houston Center
00:37 32.4072 -86.3472 234° Southwest 465 535 31,000  Level Houston Center
00:38 32.4400 -86.2506 236° Southwest  Level FlightAware Approximate
00:38 32.3311 -86.4764 235° Southwest 466 536 31,000  Level Houston Center
00:39 32.3757 -86.3618 236° Southwest  Level FlightAware Approximate
00:39 32.2581 -86.6025 236° Southwest 467 537 31,000  Level Houston Center
00:40 32.3113 -86.4728 236° Southwest  Level FlightAware Approximate
00:40 32.1831 -86.7286 235° Southwest 468 539 31,000  Level Houston Center
00:41 32.2468 -86.5837 235° Southwest  Level FlightAware Approximate
00:41 32.1081 -86.8558 235° Southwest 472 543 31,000  Level Houston Center
00:42 32.1822 -86.6944 235° Southwest  Level FlightAware Approximate
00:42 32.0331 -86.9825 235° Southwest 473 544 31,000  Level Houston Center
00:43 31.9553 -87.1103 234° Southwest 480 552 31,000  Level Houston Center
00:44 31.8786 -87.2386 235° Southwest 480 552 31,000  Level Houston Center
00:45 31.8011 -87.3675 235° Southwest 482 555 31,000  Level Houston Center
00:46 31.7236 -87.4958 235° Southwest 483 556 31,000  Level Houston Center
00:47 31.6458 -87.6256 235° Southwest 487 560 31,000  Level Houston Center
00:48 31.5683 -87.7539 235° Southwest 484 557 31,000  Level Houston Center
00:49 31.4908 -87.8831 235° Southwest 485 558 31,000  Level Houston Center
00:50 31.4117 -88.0114 234° Southwest 487 560 31,000  Level Houston Center
00:51 31.3333 -88.1394 234° Southwest 488 562 31,000  Level Houston Center
00:52 31.2556 -88.2664 234° Southwest 489 563 31,000  Level Houston Center
00:53 31.1653 -88.4072 233° Southwest 490 564 31,000  Level Houston Center
00:54 31.0875 -88.5350 235° Southwest 486 559 31,000 -120 Level Houston Center
00:55 31.0042 -88.6689 234° Southwest 488 562 30,800 -1,320 Descending Houston Center
00:56 30.9256 -88.7936 234° Southwest 482 555 28,400 -2,340 Descending Houston Center
00:57 30.8517 -88.9119 234° Southwest 457 526 26,200 -2,160 Descending Houston Center
00:59 30.7718 -89.0205 229° Southwest  Level FlightAware Approximate
01:00 30.6419 -89.2453 232° Southwest 422 486 19,800  Level Houston Center
01:01 30.5753 -89.3497 233° Southwest 404 465 17,800 -1,980 Descending Houston Center
01:02 30.5108 -89.4528 234° Southwest 397 457 15,900 -1,980 Descending Houston Center
01:03 30.4639 -89.5250 233° Southwest 378 435 14,600 -1,920 Descending Houston Center
01:04 30.4047 -89.6194 234° Southwest 363 418 12,800 -1,740 Descending Houston Center
01:05 30.3453 -89.7139 234° Southwest 361 415 11,100 -1,320 Descending Houston Center
01:06 30.3022 -89.7635 232° Southwest  Level FlightAware Approximate
01:06 30.2897 -89.8006 233° Southwest 335 386 10,200  Level Houston Center
01:07 30.2358 -89.8825 233° Southwest 292 336 8,600 -1,620 Descending Houston Center
01:08 30.1861 -89.9592 233° Southwest 294 338 7,000 -1,680 Descending Houston Center
01:09 30.1383 -90.0333 233° Southwest 291 335 5,300 -1,560 Descending Houston Center
01:10 30.1078 -90.1164 247° West 285 328 3,900 -1,380 Descending Houston Center
01:11 30.0956 -90.2011 261° West 267 307 2,600 -900 Descending Houston Center
01:12 30.0814 -90.2833 259° West 229 264 2,100 -300 Descending Houston Center
01:13 30.0728 -90.3461 261° West 193 222 2,100  Level Houston Center
01:14 30.0408 -90.3931 232° Southwest 192 221 2,100 -480 Level Houston Center
01:16 30.0158 -90.3564 128° Southeast 168 193 1,100 -660 Descending Houston Center
01:16 30.0053 -90.3247 111° Southeast 143 165 800 -420 Descending Houston Center
01:18 29.9944 -90.2703 103° East 146 168 300 -420 Descending Houston Center